DW6865 Weather Reports


Display with metric or nautical units.
time (UTC)temp
F
wind
direction
speed
MPH
gust
MPH
rain 1hr
in
rain 24hr
in
rain mn
in
humidity
%
barometer
mb
20181121050016 43 285 1.0 1.0 0.00 0.01 0.01 92 1010.7
20181121043022 43 290 0.0 1.0 0.00 0.01 0.01 92 1010.7
20181121040029 43 289 0.0 1.0 0.00 0.01 0.01 90 1010.8
20181121033015 44 289 1.0 3.0 0.00 0.01 0.01 89 1010.9
20181121030021 44 282 0.0 1.0 0.00 0.01 0.01 92 1010.9
20181121023026 44 283 0.0 1.0 0.00 0.01 0.01 93 1011.1
20181121020031 44 282 0.0 0.0 0.00 0.01 0.01 92 1011.4
20181121013017 45 283 0.0 0.0 0.00 0.01 0.01 89 1011.8
20181121010023 45 283 0.0 1.0 0.00 0.01 0.01 89 1012.1
20181121003032 46 248 0.0 0.0 0.00 0.01 0.01 87 1012.2
20181121000032 48 248 0.0 0.0 0.00 0.01 0.01 83 1012.4
20181120233018 50 248 0.0 0.0 0.00 0.01 0.01 79 1012.7
20181120230023 51 273 1.0 2.0 0.00 0.01 0.01 75 1012.7
20181120223024 51 283 2.0 4.0 0.00 0.01 0.01 77 1012.8
20181120220032 50 281 2.0 5.0 0.00 0.01 0.01 76 1013.0
20181120213018 48 83 0.0 1.0 0.00 0.01 0.01 82 1013.1
20181120210023 47 91 1.0 2.0 0.00 0.01 0.01 87 1013.4
20181120203028 46 229 0.0 1.0 0.00 0.01 0.01 96 1013.8
20181120200014 45 98 0.0 1.0 0.00 0.01 0.01 100 1013.9
20181120193019 44 89 0.0 1.0 0.00 0.01 0.01 100 1014.1
20181120190029 41 101 0.0 1.0 0.00 0.01 0.01 99 1014.6
20181120183033 40 84 0.0 1.0 0.00 0.01 0.01 99 1014.8
20181120180019 39 115 0.0 2.0 0.00 0.01 0.01 99 1015.0
20181120173023 38 100 0.0 0.0 0.01 0.01 0.01 99 1015.3
20181120170031 37 12 0.0 1.0 0.01 0.01 0.01 99 1015.5
20181120163015 36 99 0.0 1.0 0.00 0.00 0.00 99 1015.7
20181120160019 36 242 0.0 0.0 0.00 0.00 0.00 99 1015.8
20181120153025 35 242 0.0 0.0 0.00 0.00 0.00 99 1015.8
20181120150029 35 242 0.0 0.0 0.00 0.00 0.00 98 1015.5
20181120143014 36 242 0.0 0.0 0.00 0.01 0.00 99 1015.8
20181120140019 36 241 0.0 0.0 0.00 0.01 0.00 99 1015.7
20181120133023 36 242 0.0 0.0 0.00 0.01 0.00 98 1015.9
20181120130032 36 82 0.0 1.0 0.00 0.01 0.00 98 1016.2
20181120123017 37 82 0.0 0.0 0.00 0.01 0.00 98 1016.4
20181120120022 37 82 0.0 1.0 0.00 0.01 0.00 99 1016.6
20181120113027 36 287 0.0 0.0 0.00 0.01 0.00 98 1016.7
20181120110033 36 287 0.0 1.0 0.00 0.01 0.00 98 1016.8
20181120103017 36 287 0.0 1.0 0.00 0.01 0.00 98 1017.0
20181120100023 36 301 0.0 0.0 0.00 0.01 0.00 98 1017.1
20181120093031 36 282 0.0 0.0 0.00 0.01 0.00 98 1017.1
20181120090017 37 282 0.0 0.0 0.00 0.01 0.00 98 1017.2
20181120083022 37 282 0.0 0.0 0.00 0.01 0.00 98 1017.3
20181120080031 38 282 0.0 0.0 0.00 0.01 0.00 97 1017.3
20181120073016 38 283 0.0 0.0 0.00 0.01 0.01 97 1017.2
20181120070016 39 282 0.0 0.0 0.00 0.01 0.01 96 1017.2
20181120063020 39 282 0.0 0.0 0.00 0.01 0.01 93 1017.3
20181120060029 39 282 0.0 1.0 0.00 0.01 0.01 93 1017.3
20181120053030 40 282 0.0 0.0 0.00 0.01 0.01 94 1017.3